Year,Month,Day,Hour,Minute,Value (Times are PST for temperature in C)
2015,05,05,00,00,7.60
2015,05,05,00,01,7.60
2015,05,05,00,02,7.60
2015,05,05,00,03,7.60
2015,05,05,00,04,7.60
2015,05,05,00,05,7.60
2015,05,05,00,06,7.60
2015,05,05,00,07,7.60
2015,05,05,00,08,7.60
2015,05,05,00,09,7.60
2015,05,05,00,10,7.60
2015,05,05,00,11,7.60
2015,05,05,00,12,7.60
2015,05,05,00,13,7.60
2015,05,05,00,14,7.50
2015,05,05,00,15,7.40
2015,05,05,00,16,7.40
2015,05,05,00,17,7.40
2015,05,05,00,18,7.30
2015,05,05,00,19,7.30
2015,05,05,00,20,7.30
2015,05,05,00,21,7.20
2015,05,05,00,22,7.20
2015,05,05,00,23,7.20
2015,05,05,00,24,7.20
2015,05,05,00,25,7.20
2015,05,05,00,26,7.20
2015,05,05,00,27,7.10
2015,05,05,00,28,7.10
2015,05,05,00,29,7.10
2015,05,05,00,30,7.00
2015,05,05,00,31,7.00
2015,05,05,00,32,7.00
2015,05,05,00,33,7.00
2015,05,05,00,34,7.00
2015,05,05,00,35,7.10
2015,05,05,00,36,7.10
2015,05,05,00,37,7.10
2015,05,05,00,38,7.10
2015,05,05,00,39,7.10
2015,05,05,00,40,7.00
2015,05,05,00,41,7.00
2015,05,05,00,42,7.00
2015,05,05,00,43,7.00
2015,05,05,00,44,7.00
2015,05,05,00,45,7.00
2015,05,05,00,46,6.90
2015,05,05,00,47,6.90
2015,05,05,00,48,6.90
2015,05,05,00,49,6.90
2015,05,05,00,50,6.90
2015,05,05,00,51,6.80
2015,05,05,00,52,6.80
2015,05,05,00,53,6.80
2015,05,05,00,54,6.80
2015,05,05,00,55,6.80
2015,05,05,00,56,6.80
2015,05,05,00,57,6.80
2015,05,05,00,58,6.80
2015,05,05,00,59,6.80
2015,05,05,01,00,6.80
2015,05,05,01,01,6.80
2015,05,05,01,02,6.80
2015,05,05,01,03,6.80
2015,05,05,01,04,6.80
2015,05,05,01,05,6.80
2015,05,05,01,06,6.70
2015,05,05,01,07,6.70
2015,05,05,01,08,6.70
2015,05,05,01,09,6.70
2015,05,05,01,10,6.70
2015,05,05,01,11,6.70
2015,05,05,01,12,6.70
2015,05,05,01,13,6.70
2015,05,05,01,14,6.70
2015,05,05,01,15,6.60
2015,05,05,01,16,6.60
2015,05,05,01,17,6.60
2015,05,05,01,18,6.60
2015,05,05,01,19,6.60
2015,05,05,01,20,6.60
2015,05,05,01,21,6.50
2015,05,05,01,22,6.50
2015,05,05,01,23,6.50
2015,05,05,01,24,6.40
2015,05,05,01,25,6.40
2015,05,05,01,26,6.40
2015,05,05,01,27,6.40
2015,05,05,01,28,6.30
2015,05,05,01,29,6.30
2015,05,05,01,30,6.30
2015,05,05,01,31,6.30
2015,05,05,01,32,6.30
2015,05,05,01,33,6.30
2015,05,05,01,34,6.30
2015,05,05,01,35,6.30
2015,05,05,01,36,6.30
2015,05,05,01,37,6.30
2015,05,05,01,38,6.20
2015,05,05,01,39,6.20
2015,05,05,01,40,6.20
2015,05,05,01,41,6.20
2015,05,05,01,42,6.20
2015,05,05,01,43,6.20
2015,05,05,01,44,6.20
2015,05,05,01,45,6.10
2015,05,05,01,46,6.10
2015,05,05,01,47,6.10
2015,05,05,01,48,6.10
2015,05,05,01,49,6.10
2015,05,05,01,50,6.10
2015,05,05,01,51,6.10
2015,05,05,01,52,6.10
2015,05,05,01,53,6.10
2015,05,05,01,54,6.10
2015,05,05,01,55,6.10
2015,05,05,01,56,6.10
2015,05,05,01,57,6.10
2015,05,05,01,58,6.10
2015,05,05,01,59,6.10
2015,05,05,02,00,6.10
2015,05,05,02,01,6.10
2015,05,05,02,02,6.10
2015,05,05,02,03,6.20
2015,05,05,02,04,6.20
2015,05,05,02,05,6.20
2015,05,05,02,06,6.20
2015,05,05,02,07,6.20
2015,05,05,02,08,6.10
2015,05,05,02,09,6.10
2015,05,05,02,10,6.10
2015,05,05,02,11,6.10
2015,05,05,02,12,6.10
2015,05,05,02,13,6.10
2015,05,05,02,14,6.10
2015,05,05,02,15,6.10
2015,05,05,02,16,6.00
2015,05,05,02,17,6.00
2015,05,05,02,18,6.00
2015,05,05,02,19,6.00
2015,05,05,02,20,6.00
2015,05,05,02,21,6.00
2015,05,05,02,22,6.00
2015,05,05,02,23,6.00
2015,05,05,02,24,6.00
2015,05,05,02,25,5.90
2015,05,05,02,26,5.90
2015,05,05,02,27,5.90
2015,05,05,02,28,5.90
2015,05,05,02,29,5.90
2015,05,05,02,30,5.90
2015,05,05,02,31,5.90
2015,05,05,02,32,5.90
2015,05,05,02,33,5.90
2015,05,05,02,34,5.90
2015,05,05,02,35,5.90
2015,05,05,02,36,5.90
2015,05,05,02,37,5.90
2015,05,05,02,38,5.90
2015,05,05,02,39,6.00
2015,05,05,02,40,6.00
2015,05,05,02,41,6.00
2015,05,05,02,42,5.90
2015,05,05,02,43,5.90
2015,05,05,02,44,5.90
2015,05,05,02,45,5.90
2015,05,05,02,46,5.90
2015,05,05,02,47,5.90
2015,05,05,02,48,5.90
2015,05,05,02,49,5.90
2015,05,05,02,50,5.90
2015,05,05,02,51,5.80
2015,05,05,02,52,5.80
2015,05,05,02,53,5.80
2015,05,05,02,54,5.80
2015,05,05,02,55,5.80
2015,05,05,02,56,5.80
2015,05,05,02,57,5.80
2015,05,05,02,58,5.80
2015,05,05,02,59,5.80
2015,05,05,03,00,5.80
2015,05,05,03,01,5.80
2015,05,05,03,02,5.80
2015,05,05,03,03,5.80
2015,05,05,03,04,5.80
2015,05,05,03,05,5.80
2015,05,05,03,06,5.80
2015,05,05,03,07,5.80
2015,05,05,03,08,5.80
2015,05,05,03,09,5.80
2015,05,05,03,10,5.80
2015,05,05,03,11,5.80
2015,05,05,03,12,5.80
2015,05,05,03,13,5.80
2015,05,05,03,14,5.80
2015,05,05,03,15,5.80
2015,05,05,03,16,5.80
2015,05,05,03,17,5.80
2015,05,05,03,18,5.80
2015,05,05,03,19,5.80
2015,05,05,03,20,5.80
2015,05,05,03,21,5.90
2015,05,05,03,22,5.90
2015,05,05,03,23,5.90
2015,05,05,03,24,5.90
2015,05,05,03,25,5.90
2015,05,05,03,26,5.90
2015,05,05,03,27,5.90
2015,05,05,03,28,5.90
2015,05,05,03,29,5.90
2015,05,05,03,30,5.90
2015,05,05,03,31,5.90
2015,05,05,03,32,5.90
2015,05,05,03,33,5.90
2015,05,05,03,34,5.90
2015,05,05,03,35,5.90
2015,05,05,03,36,5.90
2015,05,05,03,37,5.90
2015,05,05,03,38,5.90
2015,05,05,03,39,5.90
2015,05,05,03,40,5.90
2015,05,05,03,41,5.90
2015,05,05,03,42,5.90
2015,05,05,03,43,5.90
2015,05,05,03,44,5.90
2015,05,05,03,45,5.80
2015,05,05,03,46,5.80
2015,05,05,03,47,5.80
2015,05,05,03,48,5.80
2015,05,05,03,49,5.80
2015,05,05,03,50,5.80
2015,05,05,03,51,5.80
2015,05,05,03,52,5.80
2015,05,05,03,53,5.80
2015,05,05,03,54,5.80
2015,05,05,03,55,5.80
2015,05,05,03,56,5.80
2015,05,05,03,57,5.80
2015,05,05,03,58,5.80
2015,05,05,03,59,5.80
2015,05,05,04,00,5.80
2015,05,05,04,01,5.80
2015,05,05,04,02,5.80
2015,05,05,04,03,5.80
2015,05,05,04,04,5.80
2015,05,05,04,05,5.80
2015,05,05,04,06,5.90
2015,05,05,04,07,5.90
2015,05,05,04,08,5.90
2015,05,05,04,09,5.90
2015,05,05,04,10,5.90
2015,05,05,04,11,5.90
2015,05,05,04,12,5.90
2015,05,05,04,13,6.00
2015,05,05,04,14,6.00
2015,05,05,04,15,6.00
2015,05,05,04,16,6.00
2015,05,05,04,17,6.00
2015,05,05,04,18,6.00
2015,05,05,04,19,6.00
2015,05,05,04,20,6.00
2015,05,05,04,21,6.10
2015,05,05,04,22,6.00
2015,05,05,04,23,6.10
2015,05,05,04,24,6.10
2015,05,05,04,25,6.10
2015,05,05,04,26,6.10
2015,05,05,04,27,6.10
2015,05,05,04,28,6.10
2015,05,05,04,29,6.10
2015,05,05,04,30,6.10
2015,05,05,04,31,6.10
2015,05,05,04,32,6.10
2015,05,05,04,33,6.10
2015,05,05,04,34,6.10
2015,05,05,04,35,6.10
2015,05,05,04,36,6.10
2015,05,05,04,37,6.10
2015,05,05,04,38,6.10
2015,05,05,04,39,6.10
2015,05,05,04,40,6.10
2015,05,05,04,41,6.10
2015,05,05,04,42,6.10
2015,05,05,04,43,6.10
2015,05,05,04,44,6.10
2015,05,05,04,45,6.10
2015,05,05,04,46,6.10
2015,05,05,04,47,6.10
2015,05,05,04,48,6.10
2015,05,05,04,49,6.10
2015,05,05,04,50,6.00
2015,05,05,04,51,6.00
2015,05,05,04,52,6.00
2015,05,05,04,53,6.00
2015,05,05,04,54,6.00
2015,05,05,04,55,6.00
2015,05,05,04,56,6.00
2015,05,05,04,57,6.00
2015,05,05,04,58,5.90
2015,05,05,04,59,5.90
2015,05,05,05,00,5.90
2015,05,05,05,01,5.90
2015,05,05,05,02,5.90
2015,05,05,05,03,5.90
2015,05,05,05,04,5.90
2015,05,05,05,05,5.90
2015,05,05,05,06,5.90
2015,05,05,05,07,5.80
2015,05,05,05,08,5.80
2015,05,05,05,09,5.80
2015,05,05,05,10,5.80
2015,05,05,05,11,5.80
2015,05,05,05,12,5.80
2015,05,05,05,13,5.80
2015,05,05,05,14,5.80
2015,05,05,05,15,5.80
2015,05,05,05,16,5.80
2015,05,05,05,17,5.70
2015,05,05,05,18,5.70
2015,05,05,05,19,5.70
2015,05,05,05,20,5.70
2015,05,05,05,21,5.70
2015,05,05,05,22,5.70
2015,05,05,05,23,5.70
2015,05,05,05,24,5.70
2015,05,05,05,25,5.70
2015,05,05,05,26,5.70
2015,05,05,05,27,5.70
2015,05,05,05,28,5.70
2015,05,05,05,29,5.70
2015,05,05,05,30,5.70
2015,05,05,05,31,5.70
2015,05,05,05,32,5.70
2015,05,05,05,33,5.70
2015,05,05,05,34,5.70
2015,05,05,05,35,5.70
2015,05,05,05,36,5.70
2015,05,05,05,37,5.70
2015,05,05,05,38,5.70
2015,05,05,05,39,5.70
2015,05,05,05,40,5.70
2015,05,05,05,41,5.70
2015,05,05,05,42,5.70
2015,05,05,05,43,5.70
2015,05,05,05,44,5.60
2015,05,05,05,45,5.70
2015,05,05,05,46,5.60
2015,05,05,05,47,5.60
2015,05,05,05,48,5.60
2015,05,05,05,49,5.60
2015,05,05,05,50,5.60
2015,05,05,05,51,5.70
2015,05,05,05,52,5.70
2015,05,05,05,53,5.70
2015,05,05,05,54,5.70
2015,05,05,05,55,5.70
2015,05,05,05,56,5.70
2015,05,05,05,57,5.70
2015,05,05,05,58,5.70
2015,05,05,05,59,5.70
2015,05,05,06,00,5.70
2015,05,05,06,01,5.70
2015,05,05,06,02,5.70
2015,05,05,06,03,5.70
2015,05,05,06,04,5.70
2015,05,05,06,05,5.70
2015,05,05,06,06,5.70
2015,05,05,06,07,5.70
2015,05,05,06,08,5.70
2015,05,05,06,09,5.70
2015,05,05,06,10,5.70
2015,05,05,06,11,5.70
2015,05,05,06,12,5.70
2015,05,05,06,13,5.70
2015,05,05,06,14,5.70
2015,05,05,06,15,5.70
2015,05,05,06,16,5.70
2015,05,05,06,17,5.70
2015,05,05,06,18,5.70
2015,05,05,06,19,5.70
2015,05,05,06,20,5.70
2015,05,05,06,21,5.70
2015,05,05,06,22,5.70
2015,05,05,06,23,5.70
2015,05,05,06,24,5.70
2015,05,05,06,25,5.70
2015,05,05,06,26,5.70
2015,05,05,06,27,5.70
2015,05,05,06,28,5.70
2015,05,05,06,29,5.70
2015,05,05,06,30,5.70
2015,05,05,06,31,5.70
2015,05,05,06,32,5.70
2015,05,05,06,33,5.70
2015,05,05,06,34,5.70
2015,05,05,06,35,5.70
2015,05,05,06,36,5.70
2015,05,05,06,37,5.70
2015,05,05,06,38,5.70
2015,05,05,06,39,5.70
2015,05,05,06,40,5.70
2015,05,05,06,41,5.70
2015,05,05,06,42,5.70
2015,05,05,06,43,5.70
2015,05,05,06,44,5.70
2015,05,05,06,45,5.70
2015,05,05,06,46,5.70
2015,05,05,06,47,5.70
2015,05,05,06,48,5.70
2015,05,05,06,49,5.70
2015,05,05,06,50,5.70
2015,05,05,06,51,5.70
2015,05,05,06,52,5.70
2015,05,05,06,53,5.70
2015,05,05,06,54,5.70
2015,05,05,06,55,5.80
2015,05,05,06,56,5.80
2015,05,05,06,57,5.80
2015,05,05,06,58,5.80
2015,05,05,06,59,5.80
2015,05,05,07,00,5.80
2015,05,05,07,01,5.80
2015,05,05,07,02,5.80
2015,05,05,07,03,5.90
2015,05,05,07,04,5.90
2015,05,05,07,05,5.90
2015,05,05,07,06,5.90
2015,05,05,07,07,5.90
2015,05,05,07,08,5.90
2015,05,05,07,09,6.00
2015,05,05,07,10,6.00
2015,05,05,07,11,6.10
2015,05,05,07,12,6.10
2015,05,05,07,13,6.10
2015,05,05,07,14,6.10
2015,05,05,07,15,6.10
2015,05,05,07,16,6.10
2015,05,05,07,17,6.10
2015,05,05,07,18,6.10
2015,05,05,07,19,6.10
2015,05,05,07,20,6.20
2015,05,05,07,21,6.20
2015,05,05,07,22,6.20
2015,05,05,07,23,6.20
2015,05,05,07,24,6.20
2015,05,05,07,25,6.20
2015,05,05,07,26,6.20
2015,05,05,07,27,6.30
2015,05,05,07,28,6.30
2015,05,05,07,29,6.30
2015,05,05,07,30,6.30
2015,05,05,07,31,6.30
2015,05,05,07,32,6.40
2015,05,05,07,33,6.40
2015,05,05,07,34,6.40
2015,05,05,07,35,6.40
2015,05,05,07,36,6.40
2015,05,05,07,37,6.40
2015,05,05,07,38,6.40
2015,05,05,07,39,6.40
2015,05,05,07,40,6.40
2015,05,05,07,41,6.40
2015,05,05,07,42,6.40
2015,05,05,07,43,6.40
2015,05,05,07,44,6.40
2015,05,05,07,45,6.40
2015,05,05,07,46,6.40
2015,05,05,07,47,6.40
2015,05,05,07,48,6.40
2015,05,05,07,49,6.40
2015,05,05,07,50,6.40
2015,05,05,07,51,6.40
2015,05,05,07,52,6.40
2015,05,05,07,53,6.40
2015,05,05,07,54,6.40
2015,05,05,07,55,6.40
2015,05,05,07,56,6.40
2015,05,05,07,57,6.40
2015,05,05,07,58,6.40
2015,05,05,07,59,6.40
2015,05,05,08,00,6.40
2015,05,05,08,01,6.40
2015,05,05,08,02,6.40
2015,05,05,08,03,6.40
2015,05,05,08,04,6.40
2015,05,05,08,05,6.50
2015,05,05,08,06,6.50
2015,05,05,08,07,6.50
2015,05,05,08,08,6.50
2015,05,05,08,09,6.50
2015,05,05,08,10,6.50
2015,05,05,08,11,6.50
2015,05,05,08,12,6.50
2015,05,05,08,13,6.60
2015,05,05,08,14,6.60
2015,05,05,08,15,6.60
2015,05,05,08,16,6.60
2015,05,05,08,17,6.60
2015,05,05,08,18,6.60
2015,05,05,08,19,6.70
2015,05,05,08,20,6.70
2015,05,05,08,21,6.70
2015,05,05,08,22,6.70
2015,05,05,08,23,6.70
2015,05,05,08,24,6.70
2015,05,05,08,25,6.70
2015,05,05,08,26,6.70
2015,05,05,08,27,6.80
2015,05,05,08,28,6.80
2015,05,05,08,29,6.80
2015,05,05,08,30,6.80
2015,05,05,08,31,6.90
2015,05,05,08,32,6.90
2015,05,05,08,33,6.90
2015,05,05,08,34,7.00
2015,05,05,08,35,7.00
2015,05,05,08,36,7.00
2015,05,05,08,37,7.10
2015,05,05,08,38,7.10
2015,05,05,08,39,7.20
2015,05,05,08,40,7.20
2015,05,05,08,41,7.20
2015,05,05,08,42,7.20
2015,05,05,08,43,7.20
2015,05,05,08,44,7.20
2015,05,05,08,45,7.20
2015,05,05,08,46,7.30
2015,05,05,08,47,7.30
2015,05,05,08,48,7.20
2015,05,05,08,49,7.20
2015,05,05,08,50,7.20
2015,05,05,08,51,7.20
2015,05,05,08,52,7.20
2015,05,05,08,53,7.20
2015,05,05,08,54,7.20
2015,05,05,08,55,7.30
2015,05,05,08,56,7.30
2015,05,05,08,57,7.30
2015,05,05,08,58,7.30
2015,05,05,08,59,7.30
2015,05,05,09,00,7.40
2015,05,05,09,01,7.40
2015,05,05,09,02,7.40
2015,05,05,09,03,7.30
2015,05,05,09,04,7.30
2015,05,05,09,05,7.30
2015,05,05,09,06,7.30
2015,05,05,09,07,7.30
2015,05,05,09,08,7.30
2015,05,05,09,09,7.30
2015,05,05,09,10,7.30
2015,05,05,09,11,7.30
2015,05,05,09,12,7.40
2015,05,05,09,13,7.40
2015,05,05,09,14,7.40
2015,05,05,09,15,7.40
2015,05,05,09,16,7.40
2015,05,05,09,17,7.40
2015,05,05,09,18,7.40
2015,05,05,09,19,7.40
2015,05,05,09,20,7.40
2015,05,05,09,21,7.40
2015,05,05,09,22,7.40
2015,05,05,09,23,7.40
2015,05,05,09,24,7.50
2015,05,05,09,25,7.50
2015,05,05,09,26,7.50
2015,05,05,09,27,7.60
2015,05,05,09,28,7.60
2015,05,05,09,29,7.60
2015,05,05,09,30,7.70
2015,05,05,09,31,7.70
2015,05,05,09,32,7.70
2015,05,05,09,33,7.80
2015,05,05,09,34,7.80
2015,05,05,09,35,7.80
2015,05,05,09,36,7.90
2015,05,05,09,37,7.90
2015,05,05,09,38,7.90
2015,05,05,09,39,7.90
2015,05,05,09,40,8.00
2015,05,05,09,41,8.00
2015,05,05,09,42,8.10
2015,05,05,09,43,8.10
2015,05,05,09,44,8.20
2015,05,05,09,45,8.20
2015,05,05,09,46,8.20
2015,05,05,09,47,8.20
2015,05,05,09,48,8.20
2015,05,05,09,49,8.20
2015,05,05,09,50,8.20
2015,05,05,09,51,8.20
2015,05,05,09,52,8.20
2015,05,05,09,53,8.20
2015,05,05,09,54,8.20
2015,05,05,09,55,8.30
2015,05,05,09,56,8.30
2015,05,05,09,57,8.40
2015,05,05,09,58,8.50
2015,05,05,09,59,8.50
2015,05,05,10,00,8.50
2015,05,05,10,01,8.50
2015,05,05,10,02,8.50
2015,05,05,10,03,8.40
2015,05,05,10,04,8.40
2015,05,05,10,05,8.40
2015,05,05,10,06,8.40
2015,05,05,10,07,8.40
2015,05,05,10,08,8.40
2015,05,05,10,09,8.40
2015,05,05,10,10,8.50
2015,05,05,10,11,8.50
2015,05,05,10,12,8.60
2015,05,05,10,13,8.70
2015,05,05,10,14,8.80
2015,05,05,10,15,8.90
2015,05,05,10,16,8.90
2015,05,05,10,17,9.00
2015,05,05,10,18,9.00
2015,05,05,10,19,9.10
2015,05,05,10,20,9.10
2015,05,05,10,21,9.10
2015,05,05,10,22,9.10
2015,05,05,10,23,9.10
2015,05,05,10,24,9.20
2015,05,05,10,25,9.20
2015,05,05,10,26,9.30
2015,05,05,10,27,9.30
2015,05,05,10,28,9.30
2015,05,05,10,29,9.40
2015,05,05,10,30,9.40
2015,05,05,10,31,9.50
2015,05,05,10,32,9.60
2015,05,05,10,33,9.70
2015,05,05,10,34,9.70
2015,05,05,10,35,9.70
2015,05,05,10,36,9.70
2015,05,05,10,37,9.70
2015,05,05,10,38,9.80
2015,05,05,10,39,9.80
2015,05,05,10,40,9.90
2015,05,05,10,41,10.00
2015,05,05,10,42,10.00
2015,05,05,10,43,10.10
2015,05,05,10,44,10.10
2015,05,05,10,45,10.10
2015,05,05,10,46,10.10
2015,05,05,10,47,10.10
2015,05,05,10,48,10.20
2015,05,05,10,49,10.20
2015,05,05,10,50,10.30
2015,05,05,10,51,10.40
2015,05,05,10,52,10.50
2015,05,05,10,53,10.50
2015,05,05,10,54,10.50
2015,05,05,10,55,10.50
2015,05,05,10,56,10.50
2015,05,05,10,57,10.50
2015,05,05,10,58,10.50
2015,05,05,10,59,10.40
2015,05,05,11,00,10.40
2015,05,05,11,01,10.40
2015,05,05,11,02,10.40
2015,05,05,11,03,10.30
2015,05,05,11,04,10.30
2015,05,05,11,05,10.40
2015,05,05,11,06,10.40
2015,05,05,11,07,10.50
2015,05,05,11,08,10.60
2015,05,05,11,09,10.60
2015,05,05,11,10,10.60
2015,05,05,11,11,10.70
2015,05,05,11,12,10.80
2015,05,05,11,13,10.80
2015,05,05,11,14,10.80
2015,05,05,11,15,10.80
2015,05,05,11,16,10.90
2015,05,05,11,17,10.90
2015,05,05,11,18,10.90
2015,05,05,11,19,11.00
2015,05,05,11,20,11.00
2015,05,05,11,21,11.10
2015,05,05,11,22,11.10
2015,05,05,11,23,11.10
2015,05,05,11,24,11.20
2015,05,05,11,25,11.20
2015,05,05,11,26,11.30
2015,05,05,11,27,11.30
2015,05,05,11,28,11.40
2015,05,05,11,29,11.50
2015,05,05,11,30,11.50
2015,05,05,11,31,11.60
2015,05,05,11,32,11.60
2015,05,05,11,33,11.50
2015,05,05,11,34,11.50
2015,05,05,11,35,11.50
2015,05,05,11,36,11.40
2015,05,05,11,37,11.30
2015,05,05,11,38,11.30
2015,05,05,11,39,11.30
2015,05,05,11,40,11.30
2015,05,05,11,41,11.30
2015,05,05,11,42,11.30
2015,05,05,11,43,11.30
2015,05,05,11,44,11.30
2015,05,05,11,45,11.30
2015,05,05,11,46,11.30
2015,05,05,11,47,11.40
2015,05,05,11,48,11.40
2015,05,05,11,49,11.50
2015,05,05,11,50,11.50
2015,05,05,11,51,11.50
2015,05,05,11,52,11.60
2015,05,05,11,53,11.60
2015,05,05,11,54,11.70
2015,05,05,11,55,11.80
2015,05,05,11,56,11.80
2015,05,05,11,57,12.00
2015,05,05,11,58,12.10
2015,05,05,11,59,12.10
2015,05,05,12,00,12.20
2015,05,05,12,01,12.30
2015,05,05,12,02,12.30
2015,05,05,12,03,12.30
2015,05,05,12,04,12.30
2015,05,05,12,05,12.30
2015,05,05,12,06,12.30
2015,05,05,12,07,12.30
2015,05,05,12,08,12.40
2015,05,05,12,09,12.50
2015,05,05,12,10,12.50
2015,05,05,12,11,12.60
2015,05,05,12,12,12.60
2015,05,05,12,13,12.60
2015,05,05,12,14,12.50
2015,05,05,12,15,12.60
2015,05,05,12,16,12.60
2015,05,05,12,17,12.60
2015,05,05,12,18,12.70
2015,05,05,12,19,12.80
2015,05,05,12,20,12.90
2015,05,05,12,21,13.00
2015,05,05,12,22,13.10
2015,05,05,12,23,13.10
2015,05,05,12,24,13.10
2015,05,05,12,25,13.10
2015,05,05,12,26,13.10
2015,05,05,12,27,13.20
2015,05,05,12,28,13.30
2015,05,05,12,29,13.40
2015,05,05,12,30,13.50
2015,05,05,12,31,13.50
2015,05,05,12,32,13.50
2015,05,05,12,33,13.60
2015,05,05,12,34,13.70
2015,05,05,12,35,13.70
2015,05,05,12,36,13.70
2015,05,05,12,37,13.80
2015,05,05,12,38,13.80
2015,05,05,12,39,13.80
2015,05,05,12,40,13.80
2015,05,05,12,41,13.80
2015,05,05,12,42,13.70
2015,05,05,12,43,13.60
2015,05,05,12,44,13.60
2015,05,05,12,45,13.50
2015,05,05,12,46,13.50
2015,05,05,12,47,13.40
2015,05,05,12,48,13.30
2015,05,05,12,49,13.20
2015,05,05,12,50,13.10
2015,05,05,12,51,13.10
2015,05,05,12,52,12.90
2015,05,05,12,53,12.80
2015,05,05,12,54,12.70
2015,05,05,12,55,12.60
2015,05,05,12,56,12.50
2015,05,05,12,57,12.40
2015,05,05,12,58,12.40
2015,05,05,12,59,12.30
2015,05,05,13,00,12.30
2015,05,05,13,01,12.20
2015,05,05,13,02,12.30
2015,05,05,13,03,12.30
2015,05,05,13,04,12.40
2015,05,05,13,05,12.50
2015,05,05,13,06,12.60
2015,05,05,13,07,12.70
2015,05,05,13,08,12.80
2015,05,05,13,09,12.90
2015,05,05,13,10,12.90
2015,05,05,13,11,13.00
2015,05,05,13,12,13.00
2015,05,05,13,13,13.20
2015,05,05,13,14,13.30
2015,05,05,13,15,13.30
2015,05,05,13,16,13.30
2015,05,05,13,17,13.20
2015,05,05,13,18,13.00
2015,05,05,13,19,12.90
2015,05,05,13,20,12.80
2015,05,05,13,21,12.80
2015,05,05,13,22,12.70
2015,05,05,13,23,12.70
2015,05,05,13,24,12.70
2015,05,05,13,25,12.70
2015,05,05,13,26,12.70
2015,05,05,13,27,12.70
2015,05,05,13,28,12.60
2015,05,05,13,29,12.60
2015,05,05,13,30,12.50
2015,05,05,13,31,12.50
2015,05,05,13,32,12.40
2015,05,05,13,33,12.40
2015,05,05,13,34,12.40
2015,05,05,13,35,12.40
2015,05,05,13,36,12.40
2015,05,05,13,37,12.40
2015,05,05,13,38,12.50
2015,05,05,13,39,12.50
2015,05,05,13,40,12.50
2015,05,05,13,41,12.60
2015,05,05,13,42,12.70
2015,05,05,13,43,12.70
2015,05,05,13,44,12.70
2015,05,05,13,45,12.70
2015,05,05,13,46,12.70
2015,05,05,13,47,12.60
2015,05,05,13,48,12.60
2015,05,05,13,49,12.60
2015,05,05,13,50,12.60
2015,05,05,13,51,12.60
2015,05,05,13,52,12.70
2015,05,05,13,53,12.70
2015,05,05,13,54,12.70
2015,05,05,13,55,12.70
2015,05,05,13,56,12.70
2015,05,05,13,57,12.70
2015,05,05,13,58,12.70
2015,05,05,13,59,12.70
2015,05,05,14,00,12.70
2015,05,05,14,01,12.70
2015,05,05,14,02,12.70
2015,05,05,14,03,12.80
2015,05,05,14,04,12.90
2015,05,05,14,05,12.90
2015,05,05,14,06,12.90
2015,05,05,14,07,12.90
2015,05,05,14,08,12.80
2015,05,05,14,09,12.80
2015,05,05,14,10,12.80
2015,05,05,14,11,12.80
2015,05,05,14,12,12.80
2015,05,05,14,13,12.80
2015,05,05,14,14,12.80
2015,05,05,14,15,12.90
2015,05,05,14,16,12.90
2015,05,05,14,17,12.90
2015,05,05,14,18,13.00
2015,05,05,14,19,13.00
2015,05,05,14,20,13.00
2015,05,05,14,21,13.10
2015,05,05,14,22,13.20
2015,05,05,14,23,13.30
2015,05,05,14,24,13.30
2015,05,05,14,25,13.30
2015,05,05,14,26,13.30
2015,05,05,14,27,13.30
2015,05,05,14,28,13.30
2015,05,05,14,29,13.30
2015,05,05,14,30,13.30
2015,05,05,14,31,13.20
2015,05,05,14,32,13.20
2015,05,05,14,33,13.20
2015,05,05,14,34,13.20
2015,05,05,14,35,13.20
2015,05,05,14,36,13.20
2015,05,05,14,37,13.20
2015,05,05,14,38,13.30
2015,05,05,14,39,13.30
2015,05,05,14,40,13.20
2015,05,05,14,41,13.20
2015,05,05,14,42,13.20
2015,05,05,14,43,13.20
2015,05,05,14,44,13.20
2015,05,05,14,45,13.20
2015,05,05,14,46,13.20
2015,05,05,14,47,13.30
2015,05,05,14,48,13.30
2015,05,05,14,49,13.40
2015,05,05,14,50,13.40
2015,05,05,14,51,13.60
2015,05,05,14,52,13.70
2015,05,05,14,53,13.80
2015,05,05,14,54,13.90
2015,05,05,14,55,14.00
2015,05,05,14,56,14.10
2015,05,05,14,57,14.10
2015,05,05,14,58,14.00
2015,05,05,14,59,13.90
2015,05,05,15,00,13.80
2015,05,05,15,01,13.80
2015,05,05,15,02,13.80
2015,05,05,15,03,13.90
2015,05,05,15,04,13.80
2015,05,05,15,05,13.80
2015,05,05,15,06,13.80
2015,05,05,15,07,13.80
2015,05,05,15,08,13.70
2015,05,05,15,09,13.70
2015,05,05,15,10,13.80
2015,05,05,15,11,13.90
2015,05,05,15,12,13.90
2015,05,05,15,13,13.90
2015,05,05,15,14,14.00
2015,05,05,15,15,14.10
2015,05,05,15,16,14.30
2015,05,05,15,17,14.40
2015,05,05,15,18,14.50
2015,05,05,15,19,14.60
2015,05,05,15,20,14.70
2015,05,05,15,21,14.70
2015,05,05,15,22,14.70
2015,05,05,15,23,14.70
2015,05,05,15,24,14.50
2015,05,05,15,25,14.40
2015,05,05,15,26,14.30
2015,05,05,15,27,14.20
2015,05,05,15,28,14.10
2015,05,05,15,29,14.10
2015,05,05,15,30,14.10
2015,05,05,15,31,14.10
2015,05,05,15,32,14.00
2015,05,05,15,33,13.90
2015,05,05,15,34,13.80
2015,05,05,15,35,13.70
2015,05,05,15,36,13.60
2015,05,05,15,37,13.60
2015,05,05,15,38,13.60
2015,05,05,15,39,13.60
2015,05,05,15,40,13.50
2015,05,05,15,41,13.60
2015,05,05,15,42,13.60
2015,05,05,15,43,13.50
2015,05,05,15,44,13.40
2015,05,05,15,45,13.40
2015,05,05,15,46,13.40
2015,05,05,15,47,13.40
2015,05,05,15,48,13.50
2015,05,05,15,49,13.50
2015,05,05,15,50,13.50
2015,05,05,15,51,13.40
2015,05,05,15,52,13.40
2015,05,05,15,53,13.30
2015,05,05,15,54,13.30
2015,05,05,15,55,13.30
2015,05,05,15,56,13.30
2015,05,05,15,57,13.20
2015,05,05,15,58,13.20
2015,05,05,15,59,13.20
2015,05,05,16,00,13.20
2015,05,05,16,01,13.20
2015,05,05,16,02,13.20
2015,05,05,16,03,13.20
2015,05,05,16,04,13.20
2015,05,05,16,05,13.20
2015,05,05,16,06,13.20
2015,05,05,16,07,13.10
2015,05,05,16,08,13.10
2015,05,05,16,09,13.10
2015,05,05,16,10,13.10
2015,05,05,16,11,13.10
2015,05,05,16,12,13.10
2015,05,05,16,13,13.10
2015,05,05,16,14,13.10
2015,05,05,16,15,13.10
2015,05,05,16,16,13.10
2015,05,05,16,17,13.00
2015,05,05,16,18,12.90
2015,05,05,16,19,12.80
2015,05,05,16,20,12.80
2015,05,05,16,21,12.70
2015,05,05,16,22,12.70
2015,05,05,16,23,12.60
2015,05,05,16,24,12.60
2015,05,05,16,25,12.60
2015,05,05,16,26,12.60
2015,05,05,16,27,12.60
2015,05,05,16,28,12.60
2015,05,05,16,29,12.50
2015,05,05,16,30,12.50
2015,05,05,16,31,12.50
2015,05,05,16,32,12.40
2015,05,05,16,33,12.30
2015,05,05,16,34,12.20
2015,05,05,16,35,12.20
2015,05,05,16,36,12.10
2015,05,05,16,37,12.10
2015,05,05,16,38,12.00
2015,05,05,16,39,12.00
2015,05,05,16,40,12.00
2015,05,05,16,41,12.00
2015,05,05,16,42,12.00
2015,05,05,16,43,12.00
2015,05,05,16,44,12.00
2015,05,05,16,45,12.10
2015,05,05,16,46,12.10
2015,05,05,16,47,12.20
2015,05,05,16,48,12.20
2015,05,05,16,49,12.30
2015,05,05,16,50,12.40
2015,05,05,16,51,12.50
2015,05,05,16,52,12.60
2015,05,05,16,53,12.60
2015,05,05,16,54,12.70
2015,05,05,16,55,12.80
2015,05,05,16,56,12.80
2015,05,05,16,57,12.80
2015,05,05,16,58,12.90
2015,05,05,16,59,12.90
2015,05,05,17,00,12.90
2015,05,05,17,01,12.90
2015,05,05,17,02,12.90
2015,05,05,17,03,12.90
2015,05,05,17,04,12.90
2015,05,05,17,05,12.90
2015,05,05,17,06,12.90
2015,05,05,17,07,12.90
2015,05,05,17,08,12.90
2015,05,05,17,09,12.90
2015,05,05,17,10,12.90
2015,05,05,17,11,12.90
2015,05,05,17,12,12.90
2015,05,05,17,13,12.90
2015,05,05,17,14,12.90
2015,05,05,17,15,12.90
2015,05,05,17,16,12.90
2015,05,05,17,17,12.90
2015,05,05,17,18,13.00
2015,05,05,17,19,13.00
2015,05,05,17,20,13.10
2015,05,05,17,21,13.10
2015,05,05,17,22,13.10
2015,05,05,17,23,13.10
2015,05,05,17,24,13.20
2015,05,05,17,25,13.10
2015,05,05,17,26,13.20
2015,05,05,17,27,13.20
2015,05,05,17,28,13.20
2015,05,05,17,29,13.20
2015,05,05,17,30,13.10
2015,05,05,17,31,13.00
2015,05,05,17,32,13.00
2015,05,05,17,33,13.00
2015,05,05,17,34,13.00
2015,05,05,17,35,13.00
2015,05,05,17,36,13.10
2015,05,05,17,37,13.10
2015,05,05,17,38,13.20
2015,05,05,17,39,13.20
2015,05,05,17,40,13.20
2015,05,05,17,41,13.20
2015,05,05,17,42,13.20
2015,05,05,17,43,13.20
2015,05,05,17,44,13.20
2015,05,05,17,45,13.20
2015,05,05,17,46,13.20
2015,05,05,17,47,13.30